Weather History for Coatesville, PA

Change the Weather History Date:

Monday, February 4, 2013

  Actual Average (KLNS) Record (KLNS)
Temperature  
Mean Temperature 26 °F -  
Max Temperature 32 °F 39 °F 62 °F (1991)
Min Temperature 21 °F 24 °F -1 °F (1985)
Degree Days  
Heating Degree Days 38    
Moisture  
Dew Point 14 °F    
Average Humidity 58    
Maximum Humidity 80    
Minimum Humidity 44    
Precipitation  
Precipitation 0.00 in - - ()
Sea Level Pressure  
Sea Level Pressure 29.97 in    
Wind  
Wind Speed 11 mph (WNW)    
Max Wind Speed 22 mph    
Max Gust Speed 26 mph    
Visibility 10 miles    
Events Snow    
Averages and records for this station are not official NWS values.
T = Trace of Precipitation, MM = Missing Value Source: NWS Daily Summary

Daily Weather History Graph

Daily Weather History Graph

Search for Another Location

Airport:

Trip Planner

Search our weather history database for the weather conditions in past years. The results will help you decide how hot, cold, wet, or windy it might be!

Date:

Astronomy

Feb. 04, 2013 Rise Set
Actual Time 7:08 AM EST 5:26 PM EST
Civil Twilight 6:40 AM EST 5:55 PM EST
Nautical Twilight 6:08 AM EST 6:27 PM EST
Astronomical Twilight 5:36 AM EST 6:58 PM EST
Moon 1:41 AM EST (2/4) 11:48 AM EST (2/4)
Length of Visible Light 11h 14m
Length of Day
10h 17m
Last Quarter, 37% of the Moon is Illuminated
Feb 4
Last Quarter
Feb 10
New
Feb 17
First Quarter
Feb 25
Full
Mar 4
Last Quarter

Hourly Weather History & Observations

Time (EST) Temp. Windchill Dew Point Humidity Pressure Visibility Wind Dir Wind Speed Gust Speed Precip Events Conditions
12:15 AM 26.6 °F 12.4 °F 12.2 °F 55% 29.90 in 10.0 mi NW 21.9 mph 26.5 mph N/A   Scattered Clouds
12:35 AM 24.8 °F 10.7 °F 12.2 °F 59% 29.90 in 10.0 mi NW 19.6 mph 26.5 mph N/A   Scattered Clouds
12:55 AM 24.8 °F 11.9 °F 12.2 °F 59% 29.91 in 10.0 mi NW 16.1 mph 24.2 mph N/A   Partly Cloudy
1:15 AM 24.8 °F 12.4 °F 12.2 °F 59% 29.91 in 10.0 mi NW 15.0 mph 25.3 mph N/A   Clear
1:35 AM 24.8 °F 12.9 °F 12.2 °F 59% 29.91 in 10.0 mi NW 13.8 mph 24.2 mph N/A   Clear
1:55 AM 23.0 °F 11.7 °F 12.2 °F 63% 29.92 in 10.0 mi WNW 11.5 mph - N/A   Partly Cloudy
2:15 AM 23.0 °F 10.1 °F 12.2 °F 63% 29.92 in 10.0 mi WNW 15.0 mph 19.6 mph N/A   Clear
2:55 AM 23.0 °F 9.6 °F 10.4 °F 59% 29.93 in 10.0 mi WNW 16.1 mph - N/A   Clear
3:15 AM 23.0 °F 10.6 °F 10.4 °F 59% 29.93 in 10.0 mi WNW 13.8 mph - N/A   Clear
3:35 AM 21.2 °F 8.9 °F 10.4 °F 63% 29.94 in 10.0 mi WNW 12.7 mph 17.3 mph N/A   Clear
3:55 AM 21.2 °F 9.5 °F 10.4 °F 63% 29.94 in 10.0 mi WNW 11.5 mph - N/A   Clear
4:15 AM 21.2 °F 10.9 °F 10.4 °F 63% 29.94 in 10.0 mi NW 9.2 mph - N/A   Clear
6:15 AM 21.2 °F 10.1 °F 12.2 °F 68% 29.97 in 10.0 mi WNW 10.4 mph - N/A   Clear
6:35 AM 21.2 °F 10.1 °F 12.2 °F 68% 29.98 in 10.0 mi NW 10.4 mph - N/A   Clear
6:55 AM 21.2 °F 10.1 °F 12.2 °F 68% 29.99 in 10.0 mi WNW 10.4 mph - N/A   Clear
7:15 AM 21.2 °F 10.1 °F 10.4 °F 63% 30.00 in 10.0 mi WNW 10.4 mph - N/A   Clear
7:35 AM 21.2 °F 10.1 °F 10.4 °F 63% 30.01 in 10.0 mi West 10.4 mph - N/A   Clear
7:55 AM 23.0 °F 11.7 °F 10.4 °F 59% 30.02 in 10.0 mi WNW 11.5 mph 16.1 mph N/A   Clear
8:15 AM 23.0 °F 11.7 °F 10.4 °F 59% 30.03 in 10.0 mi WNW 11.5 mph 17.3 mph N/A   Partly Cloudy
8:55 AM 26.6 °F 19.1 °F 12.2 °F 55% 30.04 in 10.0 mi West 6.9 mph - N/A   Mostly Cloudy
9:15 AM 26.6 °F 20.0 °F 10.4 °F 51% 30.04 in 10.0 mi West 5.8 mph - N/A   Overcast
9:35 AM 26.6 °F 18.2 °F 12.2 °F 55% 30.04 in 10.0 mi West 8.1 mph - N/A   Scattered Clouds
9:55 AM 26.6 °F 17.5 °F 10.4 °F 51% 30.04 in 10.0 mi West 9.2 mph - N/A   Partly Cloudy
10:15 AM 26.6 °F 15.7 °F 10.4 °F 51% 30.04 in 10.0 mi West 12.7 mph 18.4 mph N/A   Mostly Cloudy
10:35 AM 28.4 °F 17.5 °F 10.4 °F 47% 30.04 in 10.0 mi West 13.8 mph 18.4 mph N/A   Mostly Cloudy
10:55 AM 26.6 °F 16.8 °F 12.2 °F 55% 30.05 in 10.0 mi West 10.4 mph - N/A   Overcast
11:15 AM 28.4 °F 19.1 °F 14.0 °F 55% 30.04 in 10.0 mi West 10.4 mph 18.4 mph N/A   Overcast
11:35 AM 28.4 °F 16.6 °F 12.2 °F 51% 30.03 in 10.0 mi West 16.1 mph 21.9 mph N/A   Mostly Cloudy
11:55 AM 28.4 °F 19.1 °F 12.2 °F 51% 30.03 in 10.0 mi WSW 10.4 mph 18.4 mph N/A   Mostly Cloudy
12:15 PM 28.4 °F 19.1 °F 12.2 °F 51% 30.02 in 10.0 mi West 10.4 mph 17.3 mph N/A   Mostly Cloudy
12:35 PM 30.2 °F 21.3 °F 12.2 °F 47% 30.00 in 10.0 mi West 10.4 mph 16.1 mph N/A   Mostly Cloudy
12:55 PM 30.2 °F 20.8 °F 12.2 °F 47% 29.99 in 10.0 mi West 11.5 mph 16.1 mph N/A   Partly Cloudy
1:35 PM 30.2 °F 23.4 °F 14.0 °F 51% 29.98 in 10.0 mi West 6.9 mph - N/A   Clear
1:55 PM 30.2 °F 21.9 °F 12.2 °F 47% 29.97 in 10.0 mi West 9.2 mph - N/A   Partly Cloudy
2:15 PM 32.0 °F 22.1 °F 14.0 °F 48% 29.97 in 10.0 mi WNW 13.8 mph - N/A   Partly Cloudy
2:35 PM 30.2 °F 20.8 °F 12.2 °F 47% 29.97 in 10.0 mi West 11.5 mph 16.1 mph N/A   Scattered Clouds
2:55 PM 32.0 °F 24.2 °F 12.2 °F 44% 29.96 in 10.0 mi West 9.2 mph - N/A   Scattered Clouds
3:15 PM 32.0 °F 23.6 °F 14.0 °F 48% 29.96 in 10.0 mi WNW 10.4 mph - N/A   Partly Cloudy
3:35 PM 30.2 °F 22.6 °F 14.0 °F 51% 29.96 in 10.0 mi West 8.1 mph - N/A   Clear
3:55 PM 30.2 °F 22.6 °F 14.0 °F 51% 29.96 in 10.0 mi West 8.1 mph - N/A   Clear
4:15 PM 30.2 °F 21.9 °F 14.0 °F 51% 29.97 in 10.0 mi West 9.2 mph - N/A   Partly Cloudy
4:35 PM 30.2 °F 24.3 °F 15.8 °F 55% 29.96 in 10.0 mi West 5.8 mph - N/A   Partly Cloudy
4:55 PM 30.2 °F 26.7 °F 14.0 °F 51% 29.96 in 10.0 mi WSW 3.5 mph - N/A   Clear
5:15 PM 30.2 °F - 14.0 °F 51% 29.96 in 10.0 mi Calm Calm - N/A   Partly Cloudy
5:35 PM 30.2 °F - 14.0 °F 51% 29.95 in 10.0 mi Calm Calm - N/A   Scattered Clouds
5:55 PM 30.2 °F - 14.0 °F 51% 29.96 in 10.0 mi Calm Calm - N/A   Partly Cloudy
6:15 PM 28.4 °F - 14.0 °F 55% 29.96 in 10.0 mi Calm Calm - N/A   Partly Cloudy
6:35 PM 28.4 °F - 14.0 °F 55% 29.96 in 10.0 mi Calm Calm - N/A   Partly Cloudy
6:55 PM 28.4 °F - 15.8 °F 59% 29.96 in 10.0 mi Calm Calm - N/A   Scattered Clouds
7:15 PM 26.6 °F - 15.8 °F 64% 29.95 in 10.0 mi Calm Calm - N/A   Scattered Clouds
7:35 PM 28.4 °F - 15.8 °F 59% 29.95 in 10.0 mi Calm Calm - N/A   Mostly Cloudy
7:55 PM 28.4 °F 24.6 °F 17.6 °F 64% 29.95 in 10.0 mi South 3.5 mph - N/A   Overcast
8:15 PM 28.4 °F - 17.6 °F 64% 29.95 in 10.0 mi Calm Calm - N/A   Overcast
8:35 PM 28.4 °F - 17.6 °F 64% 29.95 in 10.0 mi Calm Calm - N/A   Overcast
8:55 PM 28.4 °F - 17.6 °F 64% 29.95 in 10.0 mi Calm Calm - N/A   Mostly Cloudy
9:15 PM 28.4 °F - 17.6 °F 64% 29.95 in 10.0 mi Calm Calm - N/A   Mostly Cloudy
9:35 PM 28.4 °F - 17.6 °F 64% 29.95 in 10.0 mi Calm Calm - N/A   Overcast
9:55 PM 28.4 °F 24.6 °F 17.6 °F 64% 29.95 in 10.0 mi South 3.5 mph - N/A   Overcast
10:15 PM 28.4 °F - 19.4 °F 69% 29.95 in 7.0 mi Calm Calm - N/A Snow Light Snow
10:35 PM 28.4 °F - 21.2 °F 74% 29.93 in 9.0 mi Calm Calm - N/A   Mostly Cloudy
10:55 PM 28.4 °F - 21.2 °F 74% 29.93 in 10.0 mi Calm Calm - N/A   Partly Cloudy
11:15 PM 28.4 °F - 23.0 °F 80% 29.92 in 10.0 mi Calm Calm - N/A   Mostly Cloudy
11:35 PM 28.4 °F - 23.0 °F 80% 29.91 in 10.0 mi Calm Calm - N/A Snow Light Snow
11:55 PM 28.4 °F - 23.0 °F 80% 29.91 in 10.0 mi Calm Calm - N/A   Overcast